Wind_Speed
57 58 60 60 60 59 58 58 58 59 60 60 60 59 60 62 63 63 61 59 58 57 57 56 56 56 56 56 56 56 56 56 56 56 57 59 60 61 63 64 64 63 62 61 61 61 62 63 63 63 64 64 64 63 62 62 61 61 61 61 61 60 59 60 61 61 58 57 56 56 55 54 55 55 57 57 57 56 55 54 54 54 53 51 50 50
58 59 61 62 62 60 60 60 60 61 62 63 62 61 61 62 64 64 64 62 61 59 59 58 58 57 57 57 57 57 57 57 57 57 58 59 60 61 62 63 63 62 62 61 60 59 60 60 60 61 62 62 63 63 63 62 62 61 61 61 61 60 58 58 61 62 61 59 58 57 55 55 55 57 59 59 58 56 55 54 54 54 53 51 50 50
60 60 63 64 64 63 61 61 62 63 64 65 64 63 62 63 64 65 66 65 63 62 61 60 60 59 59 59 59 58 59 58 58 58 58 59 60 60 61 62 62 62 61 60 58 57 57 57 58 59 60 61 62 62 63 63 62 62 61 61 61 60 58 58 60 63 64 62 61 58 57 56 57 59 60 60 58 56 54 54 54 54 53 52 51 51
61 62 64 67 67 66 63 63 63 64 65 65 65 64 63 64 65 66 67 66 65 64 63 62 61 61 61 60 60 60 60 60 60 60 60 60 60 61 61 62 62 61 60 59 57 56 55 55 56 58 60 60 61 61 62 63 63 62 61 61 61 61 59 58 59 62 64 65 63 61 59 59 60 61 62 60 58 56 55 55 55 55 54 52 51 51
64 64 67 70 71 69 66 64 63 64 65 66 65 64 64 64 65 67 67 67 66 65 64 64 63 63 63 62 62 61 61 61 61 61 61 61 61 61 62 62 61 60 59 58 56 54 54 54 55 57 59 59 60 60 60 62 63 63 62 61 61 61 61 59 59 61 63 64 65 64 64 64 64 64 62 60 57 56 57 57 57 56 54 53 52 52
68 68 69 71 72 71 68 65 64 64 65 66 66 65 64 65 65 67 68 68 68 67 66 65 65 64 64 63 63 63 63 63 62 62 62 62 61 61 61 61 60 59 58 57 55 54 53 53 55 57 58 58 58 58 58 59 61 62 62 62 62 62 62 62 61 61 62 64 66 67 68 68 67 65 62 59 58 59 60 60 59 57 55 53 52 52
70 70 71 71 71 70 69 66 64 64 65 66 67 66 66 65 65 66 68 68 69 68 67 66 66 66 65 65 64 64 64 63 63 63 62 61 61 60 60 59 59 58 57 56 55 54 54 54 55 56 57 57 57 57 57 57 58 59 61 62 63 63 64 64 64 64 65 66 68 70 70 69 67 64 61 59 60 62 64 63 61 58 55 53 53 53
68 69 69 69 68 68 67 66 64 64 64 65 67 68 68 67 66 66 67 69 70 70 69 68 68 67 67 66 65 65 65 64 64 63 63 62 62 61 61 61 60 60 59 58 57 56 55 54 55 55 56 56 56 56 56 55 55 56 58 59 61 62 64 65 66 66 67 68 69 69 68 66 64 61 60 61 64 66 66 65 62 59 56 54 53 54
64 65 65 65 65 65 65 65 65 64 64 65 67 69 70 70 69 69 69 70 72 72 72 71 70 69 69 68 67 67 66 66 66 65 65 65 65 65 65 65 65 65 65 63 62 60 58 56 56 55 56 56 56 56 55 55 54 54 55 56 57 59 61 62 63 65 66 66 66 66 65 63 61 61 62 64 66 68 67 65 62 59 56 55 55 55
61 61 62 63 64 64 65 65 65 65 65 66 68 70 71 71 71 70 70 71 71 71 71 71 70 70 70 69 69 68 67 67 68 68 68 68 69 69 69 69 69 69 69 68 66 64 62 60 59 57 57 56 56 55 55 55 55 54 54 54 55 56 57 58 60 61 62 62 62 62 62 61 62 63 65 67 68 68 67 65 62 59 57 56 56 57
58 59 60 61 62 63 64 65 66 67 68 69 70 72 72 71 70 69 68 68 67 67 67 67 68 68 68 67 66 66 66 67 68 69 69 70 70 70 70 69 69 69 68 68 67 66 65 63 62 61 59 58 57 56 56 55 55 55 55 55 55 56 56 57 57 58 58 59 60 61 61 62 63 65 66 67 67 67 66 64 61 59 58 57 58 58
58 58 58 59 59 60 62 64 66 67 69 71 72 72 71 70 69 67 65 64 63 63 63 64 64 64 64 63 62 62 63 64 66 68 68 69 68 68 67 67 66 66 65 65 65 65 65 65 64 64 63 61 60 58 57 56 56 56 55 55 55 56 56 56 57 57 57 58 59 60 61 62 63 64 65 66 65 65 64 63 61 60 59 59 59 59
63 61 59 58 58 58 58 59 61 63 66 68 70 70 69 68 66 64 63 62 61 61 61 62 62 62 62 61 60 60 61 63 65 66 67 66 66 65 64 64 64 64 64 64 64 64 65 65 65 65 65 64 63 61 60 59 57 57 56 56 56 56 56 56 56 57 57 58 58 59 60 61 61 62 63 63 63 63 63 62 62 61 60 60 59 58
70 67 64 62 60 58 57 56 56 56 58 61 63 64 65 65 64 63 62 61 61 61 61 61 62 62 62 61 61 62 62 64 65 65 65 64 63 63 62 62 63 63 63 63 64 64 65 65 65 66 66 66 65 63 62 60 59 58 58 58 58 57 57 57 57 57 57 58 58 59 59 60 60 61 61 62 62 63 63 63 62 61 60 59 58 57
76 74 71 68 65 63 60 58 56 55 55 55 56 58 59 60 61 61 61 61 61 61 61 61 62 62 63 63 63 63 64 64 65 64 63 63 62 61 61 62 63 63 63 63 64 64 65 65 65 65 66 65 64 63 62 61 60 60 60 60 60 59 59 58 58 58 58 58 59 59 59 60 60 60 61 61 62 63 63 63 62 60 58 57 56 55
79 78 77 74 72 70 67 65 62 59 57 55 54 54 54 55 57 58 59 60 60 60 60 61 61 62 62 63 63 63 63 64 64 63 62 62 61 61 61 61 63 64 64 63 63 64 64 64 64 64 64 64 63 62 61 61 61 62 63 62 62 61 60 60 59 59 60 60 60 60 60 60 60 60 60 60 61 62 61 60 58 56 55 54 53 53
80 79 79 78 77 76 74 71 69 66 63 60 58 56 55 55 55 55 56 57 58 59 59 59 60 60 60 61 61 61 61 62 62 62 61 61 61 61 61 62 63 64 64 63 63 63 62 62 62 62 62 61 61 61 61 62 63 64 65 65 64 63 62 62 61 61 61 61 61 61 60 60 59 58 58 58 58 58 57 56 54 53 52 51 51 52
79 79 79 79 79 79 78 76 75 73 70 68 65 63 61 59 57 56 55 55 56 56 57 57 57 57 58 58 58 59 59 59 61 61 61 61 61 61 61 61 63 64 64 63 62 62 61 61 61 61 60 61 61 62 63 64 66 66 67 66 66 65 64 63 63 63 62 62 61 60 58 57 56 55 54 55 55 55 55 53 52 52 52 52 53 55
78 78 79 79 80 80 80 79 78 77 75 74 73 71 69 67 64 62 59 57 56 55 55 55 54 55 55 55 56 57 57 58 60 61 61 61 60 61 61 61 62 63 63 63 62 61 61 61 61 61 61 62 63 64 65 66 67 68 68 68 67 66 65 65 64 63 63 61 60 58 56 54 53 53 53 54 55 56 56 55 55 55 56 57 59 61
78 78 78 79 79 80 80 80 80 79 78 78 77 76 75 74 72 70 67 64 61 59 57 55 54 53 53 54 55 56 57 58 60 61 61 61 61 61 61 61 62 62 62 62 62 62 62 62 62 63 63 64 65 66 66 67 67 67 67 67 66 66 65 64 64 63 61 60 58 56 54 53 52 53 54 55 56 58 59 59 60 61 62 64 65 66
78 77 78 79 79 79 80 80 81 81 80 80 79 78 78 78 77 75 73 71 68 65 62 60 58 57 55 54 54 56 58 59 60 61 61 61 61 61 61 61 62 62 62 62 62 63 63 64 65 66 66 66 66 66 65 64 63 62 62 61 61 62 62 61 61 60 59 57 56 54 53 53 53 54 55 56 57 58 59 60 61 62 63 65 66 66
78 78 78 78 78 79 80 80 81 81 81 80 80 80 80 80 78 77 76 75 73 70 68 66 64 63 60 58 57 57 58 59 59 60 61 61 62 62 63 63 62 62 63 63 64 64 65 66 67 67 67 66 65 63 61 59 57 55 54 54 54 55 56 57 56 56 55 54 53 53 53 53 54 55 56 57 58 58 58 58 58 58 59 60 61 61
81 80 79 79 79 79 80 80 81 81 81 81 81 82 82 81 79 78 77 75 74 73 71 70 68 67 66 64 62 61 59 58 58 59 60 61 62 64 64 64 63 63 64 64 64 64 65 65 65 64 64 62 61 59 57 53 51 49 48 48 48 49 51 52 52 53 53 53 53 53 54 54 55 56 57 58 58 58 57 56 55 54 54 55 56 56
83 82 81 80 80 80 80 81 81 82 82 82 82 83 83 82 80 79 78 76 75 74 73 72 70 69 69 68 67 65 63 61 60 59 58 60 61 63 63 63 63 63 64 64 63 62 61 61 60 60 59 58 57 55 52 49 47 46 46 46 46 46 47 48 50 51 51 52 53 54 55 56 57 57 58 58 57 56 54 52 51 49 49 50 52 53
84 83 83 82 81 81 81 81 82 83 83 83 83 83 83 82 80 79 78 77 75 75 74 73 71 70 70 69 68 67 67 65 63 61 59 59 59 60 60 60 60 61 62 62 61 59 57 56 56 55 55 54 54 52 50 48 47 47 47 47 47 47 47 47 48 49 50 52 53 54 55 56 56 56 56 55 54 53 51 49 47 46 46 48 50 52
84 84 84 84 83 83 83 83 83 84 84 84 84 83 82 81 80 78 77 76 76 75 74 73 72 71 71 69 67 67 67 66 65 64 63 62 60 59 58 58 58 58 59 59 57 55 54 54 54 54 53 53 53 52 51 50 50 50 50 49 49 49 49 49 49 49 50 51 51 52 53 53 53 53 52 52 50 49 48 46 45 45 46 48 50 52
84 84 85 85 85 85 84 84 84 85 85 85 84 84 83 81 79 77 76 76 76 75 73 73 72 72 71 69 68 67 67 66 65 65 65 64 62 61 60 58 57 57 57 57 55 53 52 52 53 53 53 53 54 54 54 54 53 53 53 52 52 52 51 51 51 50 50 50 50 50 50 50 50 50 49 48 47 46 45 44 44 45 47 49 51 53
84 84 85 85 85 85 85 85 85 85 85 85 85 85 84 82 79 78 77 77 76 74 73 73 73 72 71 70 69 68 67 65 65 65 65 64 63 63 62 60 58 57 57 57 56 54 53 52 53 53 53 54 55 56 56 56 56 55 55 54 54 53 53 53 53 52 52 51 51 50 50 49 49 48 48 47 45 44 44 44 45 47 49 51 52 54
85 85 85 85 85 86 86 86 86 86 86 86 86 85 85 83 81 80 79 78 76 74 73 73 73 73 72 71 70 69 67 66 66 66 65 63 63 64 64 62 60 59 59 59 58 56 54 54 54 54 54 55 56 57 58 57 57 56 55 54 54 54 53 53 53 53 53 52 52 51 50 50 49 48 47 45 44 43 43 44 46 48 50 52 53 54
85 85 86 86 86 86 86 86 86 86 86 86 86 86 85 84 83 82 81 79 77 75 74 74 74 73 73 72 71 69 68 68 68 67 65 63 64 65 65 63 61 61 61 60 59 58 57 56 55 55 55 56 57 58 58 57 56 55 54 54 53 52 52 52 52 52 52 52 52 51 50 49 48 47 46 45 44 43 44 45 47 49 51 52 53 54
86 86 86 86 86 86 86 86 86 86 86 86 86 86 86 85 85 84 83 81 79 77 76 75 74 74 73 72 71 70 70 71 70 69 66 64 65 66 66 63 62 63 62 61 60 60 59 59 58 57 56 57 58 58 58 57 55 54 53 52 51 50 50 51 51 51 51 51 51 50 50 49 48 47 45 44 43 44 45 47 48 50 51 52 53 53
86 86 86 86 86 87 87 86 86 86 86 86 86 86 86 86 85 85 84 83 82 80 78 76 75 74 74 73 73 72 72 73 73 72 69 68 67 67 67 65 64 64 64 63 62 61 60 60 59 58 57 58 58 59 58 56 54 53 51 50 49 49 49 49 50 50 50 50 50 50 49 48 48 47 45 45 44 45 46 48 49 51 52 53 53 54
87 87 86 86 86 87 87 87 87 87 86 86 86 86 86 86 85 85 85 85 84 82 80 78 76 75 74 74 74 74 74 74 75 74 73 72 70 70 69 67 66 66 65 64 63 62 61 61 60 59 58 58 58 58 57 55 53 52 50 49 48 48 49 49 49 49 50 50 49 49 48 48 47 46 46 46 46 47 48 50 51 52 53 54 55 56
87 87 87 87 86 87 87 87 87 87 87 87 87 86 86 86 86 85 85 85 85 84 83 81 79 77 75 74 74 74 75 75 75 75 75 74 74 73 72 71 70 69 68 66 65 63 62 61 60 60 59 58 58 58 57 55 54 52 50 49 48 48 49 49 49 49 49 49 49 48 48 47 47 47 47 47 48 49 50 51 53 54 54 55 57 58
88 88 87 87 87 87 87 87 87 87 87 87 87 87 87 86 86 86 85 85 85 85 85 83 82 80 78 76 75 75 75 75 75 75 74 75 75 76 76 75 75 74 72 70 68 66 64 62 62 61 60 59 58 58 57 56 54 53 51 50 50 50 50 50 50 50 50 50 50 49 49 49 48 48 49 49 50 51 52 53 54 55 56 57 58 58
88 88 87 87 87 87 87 87 87 87 87 87 87 87 87 87 87 86 86 86 85 85 85 85 84 83 81 79 78 77 76 76 75 73 73 74 75 77 77 78 79 79 77 76 73 71 68 66 65 64 62 61 61 60 59 57 56 54 54 53 52 52 52 51 51 51 51 51 51 51 51 51 51 51 52 52 53 53 54 55 56 56 57 58 58 59
88 88 88 87 87 87 86 87 87 87 87 87 87 88 87 87 87 87 87 86 86 85 85 85 85 84 83 82 81 80 79 78 76 73 73 73 75 76 77 79 81 81 81 80 79 77 74 72 70 69 67 66 65 64 63 61 59 58 57 56 55 55 54 54 53 53 53 53 53 53 53 53 54 54 54 55 55 55 56 56 57 57 58 58 59 59
87 87 87 87 87 87 86 86 86 87 87 87 87 87 88 88 88 88 87 87 86 86 85 85 85 85 84 84 83 82 81 79 77 75 74 73 74 75 76 78 80 81 81 82 81 80 79 77 75 74 73 71 70 69 68 67 65 63 62 61 59 58 57 57 56 56 55 55 56 56 56 56 56 56 56 56 56 56 56 57 58 58 58 59 60 60
86 87 87 87 87 87 86 86 86 87 87 87 87 87 88 88 88 88 87 87 86 86 85 85 85 84 84 84 83 83 82 80 79 77 75 73 73 74 75 77 78 79 80 81 81 80 80 79 78 77 76 75 74 73 72 71 70 69 67 66 64 63 62 62 61 60 59 59 59 59 58 58 58 58 58 57 57 57 57 57 58 58 59 59 60 61
85 86 86 86 87 86 86 87 87 87 87 87 87 88 88 88 88 88 88 87 87 86 86 85 85 85 84 84 84 83 82 81 80 78 75 74 73 73 74 75 77 78 78 79 79 79 79 79 79 78 78 76 75 75 74 73 72 72 71 70 69 68 68 66 65 64 64 63 62 62 61 61 60 60 59 59 58 58 58 58 59 59 60 60 61 61
85 85 85 86 86 87 87 87 87 87 88 88 88 88 88 87 87 87 87 87 87 86 86 86 85 85 84 84 84 83 83 82 81 79 77 75 73 72 73 74 75 76 77 77 77 77 78 78 78 77 77 76 75 75 74 73 73 72 71 71 71 71 70 69 68 67 67 66 65 64 63 62 61 61 60 60 59 59 59 60 60 61 61 61 62 62
85 85 85 86 86 87 87 87 88 88 88 88 88 88 88 87 87 87 86 86 86 86 86 86 85 85 84 84 84 84 83 82 81 80 78 76 74 73 72 73 74 75 75 75 75 76 76 76 76 76 76 75 75 73 73 73 72 71 70 70 70 71 70 70 69 68 67 66 65 64 63 62 61 61 61 60 60 60 61 61 62 62 62 63 63 63
85 85 86 86 86 87 87 88 88 89 88 88 88 88 88 88 87 87 86 86 86 86 86 86 85 85 85 84 84 83 83 83 82 81 79 78 76 74 73 72 73 73 74 74 74 75 75 75 75 75 75 75 74 73 72 72 72 71 70 70 69 68 68 68 68 67 66 65 65 64 63 62 62 61 61 61 61 62 62 62 63 63 64 64 64 65
85 86 86 87 87 87 88 88 89 89 89 89 89 89 89 88 88 87 86 86 86 86 85 85 85 85 85 85 84 84 83 82 82 81 80 79 77 75 73 72 72 72 72 72 73 74 74 74 74 74 75 74 73 72 72 72 71 70 70 70 69 67 67 67 67 66 64 64 64 64 63 62 62 62 62 62 63 63 63 63 64 64 65 65 65 65
85 86 87 87 88 88 89 89 90 90 90 90 90 89 89 89 88 87 87 87 86 86 85 85 84 84 84 85 85 84 83 82 82 81 80 79 78 76 74 72 71 71 70 71 71 72 73 73 74 74 74 73 73 72 72 71 71 70 70 69 69 68 68 68 67 65 64 64 64 63 63 62 62 62 63 63 64 64 64 64 64 64 65 65 65 65
84 85 87 88 89 90 90 90 91 91 91 91 90 90 90 90 89 88 88 88 87 86 85 85 84 83 83 84 84 84 82 82 81 81 80 79 77 76 74 73 71 70 69 69 70 70 71 71 72 73 73 72 72 72 72 71 70 69 69 69 68 67 67 67 67 66 65 64 63 63 63 63 62 63 63 64 64 63 63 64 64 64 64 64 64 64
83 85 86 88 89 90 91 91 92 92 92 92 91 91 91 91 90 89 89 88 88 87 86 85 84 83 83 84 83 82 81 81 81 81 80 78 77 76 75 73 72 70 69 68 68 68 68 69 69 70 70 70 71 71 71 70 68 67 67 67 66 66 65 65 66 65 64 63 63 63 63 62 62 62 63 63 63 62 63 63 63 63 63 63 63 63
82 84 85 87 88 90 91 92 92 93 93 93 93 92 92 92 91 91 90 90 89 88 87 85 84 84 83 83 82 81 80 80 80 80 79 78 77 76 75 74 72 70 69 68 67 67 67 67 67 67 67 67 67 68 68 67 66 66 65 65 64 63 63 64 64 63 63 62 62 62 62 62 61 61 62 62 61 61 62 62 62 62 63 63 63 63
81 83 84 86 87 89 90 92 93 93 94 94 94 93 93 93 92 92 92 91 90 89 88 86 85 85 84 83 82 81 80 80 79 78 78 77 77 76 75 74 72 71 70 69 68 67 66 66 65 65 64 64 64 64 64 64 64 63 63 63 62 62 61 62 62 62 61 61 61 61 61 61 61 61 61 60 60 61 61 62 62 62 62 63 63 63
79 81 83 84 86 88 89 91 92 93 93 94 94 94 94 94 93 93 93 92 92 90 89 88 87 85 84 83 82 81 80 79 79 78 76 76 75 75 74 74 72 71 69 69 68 67 66 65 64 64 63 62 61 61 61 61 61 61 60 60 60 60 60 60 60 60 60 60 60 60 60 60 60 60 59 59 60 60 61 61 61 61 61 61 61 61
76 79 80 82 84 86 88 89 90 91 92 93 94 94 94 94 94 94 93 93 92 92 91 90 88 86 85 84 83 82 81 80 78 77 76 75 73 72 72 72 71 70 68 68 67 66 65 64 63 63 63 62 61 59 59 59 58 58 58 58 59 59 58 58 59 59 59 58 58 58 58 58 58 58 58 58 59 59 59 60 60 60 60 60 59 59
Wind_Direction
245 242 242 243 243 243 242 243 245 246 246 247 249 250 249 249 250 253 256 258 259 259 258 257 256 254 253 253 252 252 251 251 251 252 253 254 255 257 257 258 258 258 259 260 261 262 264 265 266 266 266 266 265 263 262 261 260 259 258 258 260 263 267 270 271 270 269 271 272 273 272 271 273 275 277 279 279 280 280 279 277 277 277 275 274 272
247 244 241 242 242 242 241 241 242 243 244 247 249 250 249 249 250 252 255 257 258 258 258 256 255 254 253 252 252 251 251 251 251 251 251 252 253 254 255 256 256 257 258 258 259 260 262 263 264 265 266 265 264 263 262 260 259 257 256 256 257 259 264 267 269 268 268 270 271 271 269 268 270 273 276 277 278 278 278 277 275 275 275 274 272 271
249 246 242 241 241 241 241 240 240 241 243 246 248 249 249 249 249 251 253 256 257 258 257 256 255 253 252 252 251 251 251 251 250 250 250 251 251 252 252 253 254 255 256 257 257 258 259 261 262 264 265 265 264 263 261 260 258 256 255 254 254 256 261 265 267 267 268 269 270 270 267 266 267 270 273 275 276 277 277 276 274 272 273 272 271 270
251 248 244 241 240 240 240 240 240 241 243 246 248 249 250 249 250 251 252 255 256 256 256 255 254 253 252 251 251 251 251 251 250 250 250 250 250 250 251 251 252 253 254 255 255 256 257 258 261 262 264 264 264 263 261 260 258 256 254 253 252 254 257 262 265 267 268 269 270 268 266 265 267 269 272 273 274 276 276 274 272 270 271 271 270 270
251 249 245 242 240 239 239 240 241 242 243 246 248 249 250 250 250 250 252 253 254 255 255 254 253 252 252 251 251 251 251 251 250 250 249 249 249 249 250 250 251 252 252 253 253 254 255 257 259 261 262 263 263 263 262 260 258 256 254 252 251 252 254 258 261 265 267 268 268 267 265 265 267 269 271 272 273 275 275 273 270 269 269 270 270 270
248 248 245 242 239 238 238 240 241 242 244 246 248 250 251 251 250 250 251 252 253 254 254 253 252 252 251 251 251 251 251 251 250 249 249 248 248 249 249 250 250 251 252 252 253 253 254 256 258 260 261 261 262 262 261 261 259 257 255 252 251 251 251 254 256 259 262 264 265 265 265 265 266 268 269 270 272 274 273 271 268 267 268 269 269 269
244 244 244 241 238 237 237 239 240 242 244 247 250 252 252 252 252 251 251 251 252 253 253 253 252 251 250 250 250 250 250 250 250 249 248 248 248 248 249 250 251 251 252 253 253 254 255 256 257 259 260 260 261 261 261 261 260 259 257 255 253 252 251 252 253 256 258 260 262 263 263 264 265 266 267 270 271 271 270 268 266 266 267 268 269 269
241 241 241 239 237 236 236 237 239 242 244 248 251 253 254 255 254 253 252 252 251 252 252 252 252 251 250 250 250 250 250 250 250 249 249 249 249 250 251 252 253 254 254 255 255 255 256 256 258 259 259 260 260 260 260 260 260 260 259 258 256 255 254 254 255 256 257 259 260 262 263 263 264 265 267 269 270 269 267 266 265 265 266 267 268 269
240 239 239 238 236 236 236 237 238 241 245 249 251 253 254 255 255 254 253 252 251 251 251 251 251 251 250 250 250 250 250 250 250 251 251 252 252 253 254 255 256 257 257 257 257 257 257 258 258 258 259 259 259 259 259 259 259 260 260 260 260 260 259 259 259 259 260 261 262 262 263 263 264 265 267 268 268 266 264 263 263 264 265 266 268 269
239 238 238 237 237 237 237 237 239 242 245 249 250 250 250 251 251 251 250 249 248 248 248 249 249 249 249 248 248 249 250 251 252 253 253 254 255 256 257 258 259 260 260 260 260 260 260 259 259 259 259 259 259 259 259 259 258 259 259 261 262 263 263 263 263 263 263 264 264 264 265 265 266 267 268 268 267 265 263 262 262 263 265 266 268 268
239 239 238 238 239 239 239 239 240 242 244 246 247 247 246 247 247 247 246 246 245 245 245 245 245 246 246 246 246 246 248 250 252 253 255 256 258 259 260 261 262 262 262 262 262 262 262 262 262 261 261 261 261 261 260 260 260 259 260 261 262 263 264 264 265 265 265 265 266 266 266 266 267 267 268 267 265 263 261 261 262 264 265 267 267 267
242 241 241 241 241 241 241 240 241 241 242 242 242 242 243 243 244 244 244 244 244 243 243 243 243 243 243 244 244 245 246 248 251 254 256 258 259 261 262 263 263 264 263 263 263 264 264 264 264 264 264 263 263 263 263 262 262 262 262 262 263 264 264 264 264 264 264 265 265 266 266 266 267 267 267 266 265 263 261 261 263 264 266 266 266 265
247 246 245 244 243 243 243 242 241 241 240 239 239 239 240 240 241 242 243 243 243 242 242 242 243 243 244 244 245 246 248 249 251 253 256 258 260 261 262 263 264 264 263 263 263 263 263 264 264 264 264 264 264 264 264 264 263 263 264 264 264 264 264 264 264 263 263 263 263 264 264 265 265 266 266 265 264 262 262 262 264 264 265 264 263 263
251 250 249 248 247 246 245 244 244 243 242 241 240 239 239 239 240 240 241 242 242 242 242 242 243 244 245 247 248 249 250 251 252 253 255 257 259 260 261 262 263 263 262 262 261 261 261 261 262 262 263 263 264 264 264 264 264 264 264 264 264 264 264 263 263 262 262 262 262 262 262 263 263 264 264 263 262 262 262 262 263 263 262 261 261 263
254 253 252 251 250 249 248 246 245 245 244 244 243 241 240 240 240 240 240 241 241 241 242 242 244 245 247 249 250 251 251 251 252 253 255 256 258 259 260 261 261 262 261 260 260 260 260 260 260 260 260 261 262 262 263 263 263 264 264 264 264 264 263 263 263 262 261 261 260 260 260 261 261 261 261 261 260 260 260 260 260 260 260 261 263 265
255 255 254 253 253 252 251 249 248 246 246 245 245 245 244 243 242 241 241 241 241 241 241 242 243 245 247 249 250 250 250 251 251 252 254 255 257 258 259 260 260 260 260 260 259 259 259 259 258 258 259 259 260 261 262 262 263 263 263 263 263 263 263 262 262 261 260 260 259 259 259 259 259 259 258 258 257 257 258 259 259 259 261 263 266 268
256 256 256 255 254 254 253 252 251 249 248 247 247 246 246 246 245 245 244 243 242 241 241 240 241 243 244 246 247 247 247 249 250 252 253 255 256 258 258 259 259 259 259 259 259 258 258 258 257 257 257 258 259 260 261 261 262 262 262 262 262 262 262 261 260 259 258 258 257 257 257 257 257 257 256 256 256 257 258 259 260 262 264 267 270 271
256 256 256 256 255 255 255 254 254 252 251 250 249 248 248 248 248 248 247 246 245 243 241 240 240 240 241 242 243 243 244 246 249 252 254 255 256 258 258 259 259 259 259 258 258 258 257 257 257 256 257 257 258 259 259 259 260 260 261 261 261 261 261 260 259 257 256 255 255 254 254 255 255 254 254 255 256 258 259 261 263 265 268 270 271 270
256 256 256 256 255 255 256 256 255 255 254 253 252 252 251 251 250 250 250 250 249 247 245 243 242 241 240 240 241 242 243 246 249 252 254 256 257 258 258 258 258 258 258 258 258 257 257 256 256 256 256 256 256 256 257 257 257 257 258 259 259 259 258 257 256 255 253 252 252 251 251 252 252 252 253 254 256 258 261 262 264 266 268 269 269 267
256 256 255 255 255 256 256 256 256 256 255 255 255 254 254 254 253 253 252 252 252 252 251 249 247 246 244 243 242 243 245 248 251 253 255 256 257 258 258 258 258 258 258 258 257 256 256 255 255 255 255 255 254 254 254 253 254 254 255 256 256 256 255 254 253 252 250 250 249 249 249 249 250 251 252 254 255 257 259 261 263 265 266 266 266 264
256 255 255 255 255 256 256 257 257 257 257 256 256 256 256 256 256 255 254 254 254 254 254 254 253 252 250 249 248 247 248 250 252 254 255 257 257 258 258 257 257 257 257 257 257 256 255 255 254 254 253 253 252 251 251 250 251 252 253 253 253 253 252 251 250 248 248 247 247 247 248 249 250 252 253 254 255 257 258 259 261 263 264 265 264 262
256 255 255 255 255 256 256 257 257 258 258 257 257 257 257 257 257 257 256 255 254 254 255 255 255 255 254 254 254 253 253 252 252 253 254 256 257 257 257 256 255 255 256 256 256 255 254 254 253 252 251 250 249 248 247 248 249 250 251 252 252 251 250 249 247 247 246 246 247 248 249 250 251 252 254 255 256 257 258 259 260 262 263 263 263 261
255 255 255 255 255 255 256 257 258 259 259 258 258 257 257 257 257 257 256 255 254 254 254 254 255 255 255 256 256 257 257 256 254 253 253 253 254 254 254 253 253 253 254 254 254 254 254 253 252 250 248 246 245 245 245 246 248 250 252 252 252 252 250 249 248 247 247 248 249 249 250 251 252 253 254 255 256 257 258 259 260 261 262 262 261 260
254 255 255 255 255 255 255 256 257 258 258 258 258 258 257 257 257 257 256 256 255 254 254 254 255 256 256 256 256 257 258 258 257 255 254 252 252 251 251 250 250 250 251 252 253 253 252 251 249 247 245 243 243 243 244 246 248 250 252 253 253 253 252 250 250 249 249 250 250 250 251 251 252 253 254 255 256 257 258 259 261 262 262 262 260 259
252 253 253 254 254 254 254 255 255 256 257 258 258 257 257 257 257 257 256 256 255 255 254 254 254 255 255 256 256 256 257 258 258 257 256 255 253 251 250 248 248 248 249 250 251 250 249 248 246 245 243 242 243 243 245 247 249 251 253 253 254 253 253 252 251 251 251 251 251 251 252 252 253 253 254 255 256 257 258 260 262 263 263 262 261 259
250 251 251 252 252 252 253 253 254 255 256 257 257 257 257 257 257 257 257 256 256 255 254 254 254 254 254 255 255 256 256 256 257 256 256 256 255 253 251 249 247 247 247 248 248 247 246 246 245 244 244 244 245 246 247 249 251 252 253 253 254 254 254 253 253 253 253 253 253 253 253 253 254 254 255 256 257 258 260 262 263 264 263 262 261 260
249 250 250 250 251 251 251 252 252 253 254 256 256 257 258 258 258 258 257 257 256 255 254 254 254 253 253 253 254 254 255 255 255 254 254 254 254 253 252 250 248 246 246 246 246 245 244 244 244 245 246 247 248 249 250 251 252 252 253 253 254 254 254 254 254 254 254 254 255 255 255 255 256 256 257 258 259 260 262 263 263 263 262 261 261 261
249 249 249 249 250 250 250 251 251 252 253 254 256 257 257 258 258 258 258 257 257 256 255 254 253 253 252 252 252 252 253 253 252 252 252 251 251 251 251 249 247 246 245 245 244 244 243 243 244 245 246 248 249 251 252 253 254 254 254 254 254 254 254 255 255 255 256 256 256 257 257 257 258 258 259 260 261 262 262 262 261 260 260 260 260 261
248 248 249 249 249 249 250 250 250 251 252 253 254 255 256 257 258 258 258 258 257 257 256 254 253 252 252 251 250 250 250 251 250 250 249 248 249 249 249 248 246 245 244 244 244 243 243 243 243 244 246 248 250 251 253 254 255 255 255 254 254 254 254 255 255 256 256 257 257 258 258 259 259 260 261 261 262 261 260 259 258 258 258 259 260 262
248 248 248 248 249 249 249 249 250 250 251 252 252 253 255 256 257 258 258 258 258 257 256 255 254 253 252 251 250 249 248 248 248 248 247 246 246 247 247 246 245 244 244 243 243 243 243 244 244 245 246 248 250 251 253 254 255 255 255 254 254 254 254 254 255 256 256 257 257 258 259 259 260 260 261 262 262 260 259 257 257 257 258 259 261 262
247 247 247 248 248 248 249 249 249 250 250 251 251 252 253 254 255 256 257 258 258 258 257 256 255 254 253 251 250 249 248 247 247 246 245 245 245 245 245 244 243 243 243 243 243 243 244 244 245 245 246 248 250 251 253 254 254 254 254 254 254 254 254 254 255 255 256 256 257 258 258 259 259 260 261 261 261 260 259 258 258 258 260 261 263 264
247 247 247 247 247 248 248 248 249 249 249 250 250 251 252 253 254 255 256 257 258 258 258 257 256 255 254 253 252 250 249 248 247 246 246 245 245 245 244 244 243 243 243 243 243 243 244 245 246 246 247 248 249 251 252 253 253 253 254 254 254 254 254 254 254 255 255 256 256 257 257 258 258 259 259 260 260 259 259 259 260 261 262 263 264 266
247 246 246 246 247 247 247 248 248 248 249 249 250 250 251 251 252 253 254 255 257 258 258 258 257 256 255 254 253 252 251 250 249 248 247 246 246 245 245 245 244 244 244 244 244 244 244 245 246 247 247 248 249 250 251 252 253 253 253 253 253 254 254 254 254 255 255 255 256 256 256 256 256 257 257 257 258 258 259 259 260 262 263 264 265 266
247 246 246 246 246 246 247 247 247 248 248 249 249 249 250 250 251 252 253 254 255 256 257 258 258 257 257 256 255 254 253 252 251 250 249 249 248 247 247 247 246 246 246 246 245 245 245 245 246 247 248 248 249 250 251 252 252 252 252 251 251 252 252 253 253 254 254 255 255 255 255 255 255 255 255 256 257 257 258 260 261 262 263 265 266 267
247 246 246 246 246 246 246 247 247 247 247 248 248 249 249 250 250 250 251 252 253 254 255 256 257 257 257 257 256 255 254 253 252 252 251 251 250 250 250 249 249 248 248 248 247 247 246 246 246 247 248 249 249 250 250 251 252 252 251 250 250 250 250 251 252 252 253 253 254 254 254 254 255 255 256 257 257 259 260 261 262 264 265 266 267 268
246 246 246 246 246 246 246 246 246 247 247 247 248 248 249 249 249 249 250 250 251 252 253 254 255 256 256 256 256 256 255 255 254 253 252 252 252 252 252 252 251 251 250 250 250 249 248 248 247 247 248 249 250 250 251 251 252 252 252 251 250 249 249 250 251 251 252 253 253 254 254 255 255 256 257 258 260 261 262 263 265 266 267 267 268 269
246 246 246 246 246 246 246 246 246 246 247 247 247 248 248 248 249 249 249 249 250 251 251 252 253 254 254 255 255 255 255 255 255 254 253 253 253 253 253 253 253 253 252 252 252 252 251 251 250 250 250 250 251 252 252 252 252 252 252 251 250 250 249 250 250 251 252 252 253 254 255 255 256 258 259 260 261 262 264 265 266 267 268 269 269 270
245 245 245 245 245 245 245 246 246 246 246 247 247 247 248 248 248 248 248 249 249 250 250 251 252 252 253 254 254 255 255 255 255 255 254 254 253 253 253 253 253 254 254 253 253 253 254 254 253 253 253 252 253 253 254 254 254 253 252 252 252 251 251 251 251 252 252 253 254 255 256 257 258 259 260 262 263 264 265 267 267 268 269 269 269 270
244 244 244 245 245 245 245 245 245 246 246 246 246 247 247 247 248 248 248 248 249 249 250 250 251 251 252 253 253 254 254 255 255 255 255 254 253 253 253 253 253 253 254 254 254 254 255 255 256 256 255 255 255 255 255 256 256 255 255 254 254 253 253 253 254 254 254 255 256 257 258 259 260 261 262 264 265 266 267 268 268 269 269 269 269 270
243 243 243 243 244 244 244 245 245 245 245 246 246 246 247 247 247 248 248 248 248 249 249 250 250 251 251 252 252 253 254 254 255 255 255 254 253 252 252 252 252 253 254 254 255 255 255 256 257 257 257 257 257 257 257 257 257 257 257 257 256 256 256 256 256 257 257 258 258 259 260 261 262 263 264 265 266 267 268 268 269 269 269 269 269 270
241 241 241 242 242 243 243 243 244 244 245 245 245 246 246 247 247 247 247 248 248 248 249 249 249 250 250 251 251 252 253 253 254 254 254 253 253 252 251 251 252 252 253 254 254 255 255 256 257 257 258 258 259 259 259 259 259 259 259 258 258 258 258 258 259 259 260 260 261 262 263 263 264 265 266 267 267 268 268 268 269 269 269 269 269 270
239 239 240 240 241 241 241 242 242 243 243 244 245 245 246 246 246 247 247 247 248 248 248 248 249 249 250 250 250 251 252 252 253 253 254 253 253 252 251 251 251 251 252 253 253 254 254 255 256 257 258 258 259 259 259 260 260 260 260 260 260 260 260 260 261 261 261 262 263 264 264 265 265 266 266 267 267 268 268 268 268 269 269 269 269 270
238 238 238 239 239 239 240 240 241 241 242 243 243 244 245 245 246 246 246 247 247 248 248 248 249 249 249 249 250 250 251 251 252 252 253 253 253 252 251 251 250 251 251 251 252 253 253 254 255 256 256 257 258 259 259 260 260 260 261 261 261 261 261 262 262 262 262 263 264 264 265 265 265 266 266 267 267 267 268 268 268 268 268 269 269 269
238 238 237 237 237 238 238 239 239 240 241 241 242 243 243 244 245 245 246 246 246 247 247 248 248 249 249 249 249 250 250 250 251 252 252 252 253 252 252 251 251 250 250 250 251 251 252 253 254 254 255 256 257 258 258 259 259 260 260 261 261 262 262 262 263 263 263 263 264 264 265 265 265 266 266 266 267 267 267 267 267 267 267 268 268 268
237 237 237 237 236 236 237 237 238 239 239 240 241 241 242 243 243 244 245 245 245 246 247 247 248 248 249 249 249 249 249 250 250 251 251 252 252 252 252 251 251 250 250 249 250 250 250 251 252 253 254 255 256 257 257 258 258 259 260 260 261 261 262 262 263 263 263 264 264 264 265 265 265 265 266 266 266 266 266 266 266 266 266 267 267 267
237 237 236 236 236 236 236 236 237 237 238 239 239 240 241 241 242 243 243 244 244 245 245 246 247 247 248 249 249 249 250 250 250 250 250 251 251 251 252 251 251 250 249 249 249 249 249 249 250 251 252 253 255 256 257 257 258 258 259 260 260 261 261 262 263 263 264 264 264 264 264 264 264 264 265 265 265 265 265 265 265 265 265 265 266 266
237 236 236 235 235 235 235 236 236 237 237 238 238 239 240 240 241 242 242 243 243 244 244 245 245 246 247 248 248 249 250 250 250 250 250 250 251 251 251 251 251 250 250 249 249 248 248 249 249 250 251 252 253 254 255 256 257 257 258 259 259 260 260 261 262 262 262 262 263 263 263 263 262 262 263 263 263 263 263 263 263 264 264 265 265 266
237 236 236 236 235 235 235 235 235 236 236 237 237 238 239 239 240 241 241 242 242 243 243 244 245 245 246 246 247 247 248 249 250 250 250 250 250 250 250 250 250 250 250 249 249 249 249 249 249 249 250 251 251 253 254 255 256 256 257 258 258 258 259 259 260 260 261 261 261 261 261 261 260 261 261 261 261 262 262 263 263 264 264 265 265 266
237 237 236 236 235 235 235 235 235 235 236 236 237 238 238 239 239 240 241 241 241 242 243 243 244 244 245 245 246 246 247 247 248 249 249 250 250 251 251 250 250 250 250 250 250 250 250 250 250 250 250 251 251 252 253 254 254 255 256 256 257 257 257 258 258 259 259 259 259 259 259 259 260 260 260 261 261 262 262 263 264 264 265 266 266 267
238 238 237 236 236 236 235 235 235 235 235 236 237 237 238 239 239 240 240 240 241 241 242 242 243 243 244 244 245 245 246 246 247 247 248 249 250 250 251 251 251 250 250 250 250 250 250 250 251 251 251 251 252 252 253 253 254 254 255 255 256 256 256 257 257 257 258 258 258 258 259 259 260 260 261 261 262 263 263 264 265 265 266 267 267 267
239 238 238 237 237 236 236 235 235 235 235 236 236 237 238 239 239 240 240 240 241 241 241 241 242 242 243 244 244 245 245 245 246 246 246 247 248 249 250 251 251 251 251 251 251 251 251 251 251 251 252 252 252 252 252 253 253 253 253 254 254 255 255 256 256 257 257 257 258 258 259 259 260 261 261 262 262 263 264 265 265 266 266 266 267 267
Height
5667 5669 5671 5672 5673 5674 5675 5678 5680 5681 5681 5681 5682 5683 5683 5684 5684 5685 5686 5688 5689 5690 5692 5693 5694 5695 5695 5696 5696 5697 5698 5698 5700 5701 5703 5704 5704 5705 5706 5706 5707 5707 5708 5708 5709 5709 5710 5710 5710 5710 5710 5710 5710 5710 5710 5711 5712 5713 5714 5716 5717 5719 5720 5721 5721 5721 5721 5722 5722 5722 5722 5723 5723 5722 5723 5723 5723 5723 5723 5723 5723 5723 5723 5723 5724 5724
5661 5663 5665 5666 5668 5669 5669 5672 5674 5675 5676 5677 5678 5678 5679 5680 5680 5680 5681 5683 5684 5685 5686 5687 5688 5689 5690 5691 5692 5693 5693 5694 5695 5697 5698 5699 5700 5700 5701 5701 5701 5702 5703 5703 5704 5705 5706 5706 5707 5707 5707 5707 5707 5706 5705 5705 5706 5708 5709 5710 5712 5713 5715 5716 5717 5717 5717 5717 5718 5718 5718 5718 5719 5719 5719 5719 5719 5719 5719 5719 5719 5719 5719 5720 5720 5720
5655 5657 5658 5660 5662 5663 5664 5666 5668 5669 5670 5672 5673 5674 5675 5676 5676 5677 5677 5678 5679 5680 5681 5682 5683 5684 5685 5686 5688 5688 5689 5690 5691 5692 5693 5694 5695 5695 5696 5696 5697 5697 5698 5698 5699 5700 5702 5703 5703 5704 5704 5703 5702 5701 5700 5701 5701 5703 5703 5704 5706 5708 5710 5711 5712 5712 5712 5713 5713 5714 5714 5715 5715 5715 5715 5715 5715 5715 5715 5716 5716 5716 5716 5716 5716 5717
5649 5651 5652 5654 5656 5658 5658 5660 5662 5663 5665 5666 5667 5668 5669 5671 5671 5672 5673 5673 5674 5675 5676 5677 5678 5679 5680 5681 5683 5684 5685 5686 5687 5688 5689 5689 5690 5690 5691 5692 5692 5693 5693 5694 5695 5696 5697 5698 5699 5699 5699 5698 5697 5696 5696 5696 5697 5698 5699 5700 5701 5703 5704 5706 5707 5708 5708 5708 5709 5709 5710 5710 5710 5710 5710 5711 5711 5711 5712 5712 5712 5712 5712 5712 5713 5713
5643 5645 5646 5649 5651 5652 5653 5654 5656 5658 5659 5660 5661 5662 5663 5665 5666 5667 5668 5669 5669 5670 5671 5672 5673 5674 5675 5676 5678 5679 5680 5681 5681 5683 5683 5684 5685 5685 5686 5687 5688 5688 5689 5689 5690 5691 5692 5693 5693 5693 5693 5692 5692 5692 5692 5692 5693 5694 5695 5695 5696 5698 5699 5701 5703 5703 5704 5704 5705 5705 5705 5705 5705 5706 5706 5706 5707 5707 5708 5708 5708 5708 5708 5708 5708 5709
5638 5639 5641 5643 5645 5646 5647 5649 5651 5653 5654 5655 5656 5657 5658 5659 5661 5662 5663 5663 5664 5665 5666 5667 5668 5669 5670 5671 5673 5674 5675 5675 5676 5677 5678 5679 5680 5680 5681 5682 5683 5684 5685 5685 5686 5686 5687 5687 5688 5688 5688 5688 5688 5688 5688 5688 5689 5690 5691 5691 5692 5693 5694 5695 5697 5699 5700 5700 5700 5700 5700 5700 5701 5701 5701 5702 5702 5703 5704 5704 5704 5703 5704 5704 5705 5705
5632 5634 5636 5637 5638 5640 5642 5643 5645 5648 5649 5650 5651 5652 5653 5654 5656 5657 5657 5658 5658 5659 5661 5662 5663 5663 5665 5666 5668 5668 5669 5670 5671 5672 5673 5674 5675 5675 5676 5677 5678 5679 5680 5681 5681 5682 5682 5683 5683 5683 5683 5683 5683 5684 5684 5685 5685 5686 5687 5688 5688 5689 5690 5690 5692 5693 5694 5694 5695 5695 5695 5695 5696 5697 5697 5697 5698 5699 5699 5699 5699 5699 5700 5700 5701 5701
5627 5628 5631 5632 5633 5634 5637 5638 5640 5642 5644 5645 5646 5647 5648 5649 5650 5651 5651 5652 5653 5654 5655 5656 5657 5658 5659 5661 5662 5663 5664 5665 5666 5667 5668 5669 5670 5671 5672 5673 5673 5674 5675 5676 5677 5677 5678 5678 5678 5679 5679 5680 5680 5680 5681 5681 5682 5683 5683 5684 5684 5685 5686 5686 5687 5688 5688 5689 5689 5690 5690 5691 5691 5692 5692 5693 5693 5694 5694 5695 5695 5695 5696 5696 5696 5697
5621 5623 5624 5626 5628 5629 5631 5633 5635 5637 5638 5640 5641 5642 5642 5643 5644 5645 5647 5648 5648 5649 5650 5651 5652 5653 5654 5656 5657 5658 5659 5660 5661 5662 5663 5663 5664 5665 5667 5668 5669 5669 5670 5671 5672 5673 5673 5674 5674 5675 5675 5676 5676 5677 5677 5677 5678 5678 5679 5680 5680 5681 5682 5682 5683 5683 5684 5684 5685 5685 5685 5686 5687 5687 5688 5688 5688 5689 5689 5690 5690 5691 5691 5692 5692 5693
5616 5618 5619 5621 5623 5624 5626 5627 5629 5631 5633 5635 5636 5637 5638 5638 5639 5640 5642 5643 5643 5644 5646 5647 5648 5648 5649 5651 5652 5653 5654 5655 5656 5656 5657 5658 5659 5660 5661 5663 5663 5664 5665 5665 5666 5667 5668 5669 5670 5671 5671 5672 5672 5673 5673 5673 5673 5674 5674 5675 5676 5676 5677 5678 5678 5678 5679 5679 5680 5680 5681 5681 5682 5682 5683 5683 5683 5684 5685 5685 5686 5687 5687 5688 5688 5688
5610 5612 5613 5615 5617 5619 5621 5622 5623 5625 5627 5629 5631 5632 5633 5634 5635 5636 5637 5637 5638 5640 5641 5642 5643 5643 5644 5646 5647 5648 5649 5650 5650 5651 5652 5653 5653 5655 5656 5657 5658 5659 5660 5660 5661 5661 5662 5663 5664 5665 5666 5667 5667 5668 5668 5669 5669 5670 5670 5670 5671 5671 5672 5673 5673 5674 5674 5675 5675 5675 5676 5676 5677 5677 5678 5678 5679 5679 5680 5681 5682 5683 5683 5683 5683 5684
5605 5606 5608 5609 5611 5613 5615 5617 5618 5619 5622 5624 5625 5627 5628 5629 5630 5631 5632 5632 5633 5634 5635 5636 5637 5638 5639 5640 5641 5642 5643 5644 5645 5646 5647 5648 5648 5649 5651 5652 5653 5654 5655 5656 5656 5657 5658 5658 5659 5659 5660 5661 5662 5663 5663 5664 5665 5665 5665 5666 5666 5667 5667 5668 5668 5669 5670 5670 5670 5670 5671 5671 5672 5672 5673 5673 5674 5675 5676 5677 5678 5678 5678 5679 5679 5679
5599 5601 5602 5604 5606 5608 5609 5611 5612 5613 5615 5617 5618 5620 5621 5623 5624 5626 5626 5626 5627 5628 5630 5631 5631 5632 5633 5634 5635 5636 5638 5638 5639 5641 5642 5643 5643 5644 5645 5647 5648 5649 5650 5652 5652 5653 5654 5654 5655 5655 5656 5656 5657 5658 5659 5659 5660 5660 5661 5661 5662 5662 5663 5663 5664 5664 5665 5665 5665 5666 5666 5667 5667 5668 5668 5669 5670 5671 5671 5672 5673 5674 5674 5674 5675 5675
5593 5595 5597 5598 5600 5602 5603 5605 5606 5608 5609 5610 5611 5613 5614 5616 5618 5619 5620 5621 5622 5623 5624 5625 5626 5626 5627 5629 5630 5631 5632 5633 5635 5636 5637 5638 5638 5639 5640 5642 5643 5644 5645 5647 5648 5649 5650 5651 5652 5652 5652 5652 5653 5653 5654 5654 5655 5655 5656 5656 5657 5657 5658 5658 5659 5659 5660 5660 5660 5661 5661 5662 5663 5663 5664 5665 5665 5666 5667 5668 5668 5669 5669 5670 5670 5670
5587 5588 5591 5593 5594 5596 5598 5599 5601 5602 5603 5605 5606 5607 5609 5610 5612 5613 5614 5615 5616 5617 5618 5619 5619 5620 5622 5623 5624 5626 5628 5629 5630 5631 5632 5633 5633 5634 5636 5637 5638 5639 5641 5642 5643 5644 5645 5647 5647 5647 5648 5648 5648 5649 5649 5650 5650 5651 5651 5651 5652 5652 5653 5653 5654 5654 5655 5655 5655 5656 5656 5657 5658 5658 5659 5660 5661 5662 5662 5663 5663 5664 5665 5665 5666 5666
5581 5583 5585 5587 5588 5589 5591 5594 5596 5597 5598 5599 5601 5603 5604 5605 5606 5607 5608 5609 5610 5611 5613 5613 5614 5615 5616 5618 5619 5621 5623 5624 5625 5626 5627 5628 5628 5629 5631 5633 5633 5634 5635 5637 5638 5639 5640 5641 5642 5643 5643 5643 5644 5644 5645 5645 5646 5646 5646 5647 5647 5648 5648 5648 5649 5649 5650 5650 5650 5651 5652 5652 5653 5654 5655 5656 5656 5657 5658 5658 5659 5660 5661 5662 5662 5662
5575 5577 5579 5580 5582 5583 5585 5587 5589 5591 5592 5594 5596 5598 5599 5600 5601 5602 5603 5604 5605 5606 5607 5608 5608 5610 5611 5613 5614 5616 5618 5619 5619 5620 5622 5623 5623 5624 5626 5628 5629 5629 5630 5632 5633 5634 5635 5636 5637 5638 5638 5639 5639 5640 5640 5641 5641 5641 5641 5641 5642 5643 5643 5644 5644 5644 5645 5645 5646 5646 5647 5648 5648 5649 5650 5651 5652 5653 5653 5654 5655 5656 5657 5657 5657 5657
5569 5571 5573 5574 5576 5577 5578 5581 5583 5584 5586 5588 5590 5592 5593 5595 5596 5598 5599 5600 5601 5601 5602 5602 5603 5604 5606 5608 5609 5611 5612 5614 5614 5615 5616 5617 5618 5619 5621 5623 5624 5625 5625 5627 5628 5629 5630 5631 5632 5633 5633 5634 5635 5635 5635 5635 5636 5636 5636 5636 5637 5637 5638 5638 5639 5639 5640 5640 5641 5641 5642 5643 5644 5645 5646 5647 5648 5649 5650 5650 5651 5652 5652 5652 5652 5653
5563 5565 5567 5568 5570 5571 5572 5574 5576 5577 5579 5580 5582 5584 5587 5589 5591 5593 5594 5595 5596 5597 5598 5598 5598 5599 5601 5602 5603 5605 5607 5608 5609 5609 5610 5612 5613 5614 5616 5619 5620 5620 5621 5622 5623 5624 5625 5626 5627 5628 5628 5629 5630 5630 5630 5630 5630 5630 5631 5631 5632 5632 5633 5633 5634 5634 5635 5635 5636 5637 5638 5638 5639 5640 5642 5643 5644 5645 5646 5646 5647 5647 5648 5648 5648 5648
5557 5559 5561 5563 5563 5564 5566 5568 5569 5570 5572 5573 5575 5578 5580 5583 5585 5587 5588 5590 5591 5593 5593 5593 5594 5594 5596 5597 5598 5600 5601 5603 5604 5605 5605 5607 5608 5610 5612 5614 5615 5616 5616 5617 5618 5619 5621 5621 5622 5623 5623 5624 5625 5625 5625 5625 5625 5625 5626 5626 5627 5627 5628 5628 5629 5629 5630 5631 5631 5632 5633 5634 5635 5636 5637 5638 5639 5641 5642 5642 5643 5643 5644 5644 5644 5644
5551 5553 5555 5556 5557 5558 5560 5561 5562 5563 5565 5567 5569 5572 5574 5576 5578 5580 5582 5584 5586 5587 5588 5589 5589 5590 5591 5593 5594 5595 5596 5598 5600 5600 5600 5602 5603 5605 5607 5609 5611 5612 5612 5613 5613 5614 5616 5616 5617 5618 5618 5619 5619 5619 5619 5620 5620 5620 5621 5621 5622 5622 5623 5623 5624 5624 5625 5626 5627 5628 5628 5629 5630 5631 5632 5633 5634 5636 5637 5638 5638 5639 5639 5639 5639 5639
5544 5546 5547 5548 5550 5552 5553 5553 5554 5556 5558 5560 5563 5565 5567 5568 5571 5573 5575 5578 5579 5581 5583 5583 5584 5585 5587 5589 5590 5591 5592 5594 5595 5596 5596 5598 5599 5601 5602 5604 5606 5607 5608 5608 5608 5609 5611 5611 5612 5612 5613 5613 5613 5614 5614 5615 5615 5615 5616 5616 5617 5617 5618 5618 5619 5620 5621 5622 5623 5623 5624 5625 5626 5627 5628 5629 5629 5630 5631 5632 5633 5633 5633 5633 5633 5634
5537 5538 5540 5541 5543 5545 5546 5546 5547 5548 5551 5553 5556 5558 5559 5562 5565 5567 5569 5571 5573 5575 5577 5578 5579 5581 5583 5585 5586 5587 5588 5589 5590 5591 5592 5594 5595 5596 5597 5599 5601 5603 5602 5602 5603 5604 5605 5606 5606 5606 5607 5608 5608 5608 5609 5609 5610 5611 5611 5612 5612 5613 5613 5614 5615 5616 5617 5618 5618 5619 5620 5621 5622 5623 5623 5624 5625 5625 5626 5627 5627 5627 5628 5628 5629 5629
5531 5532 5533 5534 5536 5538 5539 5540 5541 5542 5544 5547 5549 5551 5553 5556 5558 5561 5563 5565 5567 5569 5571 5573 5574 5576 5578 5579 5581 5582 5583 5584 5586 5587 5588 5589 5590 5591 5593 5595 5596 5597 5597 5597 5598 5599 5600 5600 5600 5601 5601 5602 5603 5603 5603 5604 5605 5606 5607 5607 5608 5608 5609 5610 5611 5612 5612 5613 5614 5615 5616 5616 5617 5618 5618 5619 5620 5621 5621 5622 5622 5623 5623 5624 5624 5625
5525 5526 5527 5528 5530 5532 5533 5535 5536 5537 5538 5541 5543 5545 5547 5549 5551 5554 5556 5559 5561 5563 5566 5567 5569 5571 5572 5573 5575 5577 5578 5579 5581 5583 5584 5584 5585 5586 5588 5589 5591 5591 5592 5592 5593 5594 5595 5595 5595 5595 5596 5597 5598 5598 5599 5600 5601 5602 5602 5603 5603 5604 5605 5606 5606 5607 5608 5608 5609 5610 5611 5612 5612 5613 5614 5614 5615 5616 5616 5617 5618 5618 5619 5620 5621 5621
5520 5521 5522 5523 5525 5527 5528 5530 5531 5532 5533 5535 5536 5538 5540 5542 5545 5548 5550 5553 5555 5557 5559 5561 5563 5564 5565 5567 5569 5571 5572 5573 5575 5578 5579 5580 5580 5582 5583 5584 5586 5586 5587 5587 5588 5589 5590 5590 5590 5591 5592 5592 5593 5594 5594 5595 5596 5597 5598 5598 5599 5600 5600 5601 5602 5603 5603 5604 5605 5605 5606 5607 5608 5608 5609 5610 5610 5611 5612 5613 5613 5614 5615 5616 5617 5617
5514 5516 5517 5518 5520 5522 5523 5525 5526 5527 5528 5529 5530 5531 5533 5535 5538 5542 5544 5546 5548 5550 5553 5556 5557 5558 5560 5562 5564 5565 5566 5568 5570 5572 5574 5575 5576 5577 5578 5580 5580 5581 5582 5582 5583 5584 5585 5585 5586 5586 5587 5588 5588 5589 5590 5591 5592 5592 5593 5594 5594 5595 5596 5597 5597 5598 5599 5599 5600 5601 5602 5603 5603 5604 5604 5605 5606 5607 5608 5608 5609 5610 5611 5612 5612 5613
5507 5509 5511 5512 5514 5516 5517 5519 5520 5522 5523 5523 5524 5525 5526 5529 5532 5535 5537 5538 5540 5543 5547 5550 5551 5552 5554 5557 5558 5559 5561 5563 5565 5566 5568 5570 5571 5572 5573 5574 5575 5576 5576 5577 5577 5578 5579 5580 5581 5582 5583 5583 5584 5585 5585 5586 5587 5588 5588 5589 5590 5591 5591 5592 5593 5593 5594 5595 5595 5596 5597 5598 5598 5599 5600 5601 5602 5603 5603 5604 5605 5606 5607 5608 5608 5608
5500 5502 5504 5506 5507 5509 5511 5513 5514 5516 5517 5518 5519 5519 5521 5523 5526 5528 5529 5530 5533 5537 5541 5543 5544 5546 5548 5550 5552 5554 5556 5558 5559 5560 5562 5565 5566 5567 5567 5569 5570 5571 5571 5571 5572 5573 5574 5575 5576 5577 5578 5578 5579 5580 5580 5581 5582 5583 5584 5585 5585 5586 5587 5587 5588 5588 5589 5590 5591 5591 5592 5593 5594 5595 5596 5596 5597 5598 5599 5600 5601 5602 5603 5603 5604 5604
5493 5495 5497 5498 5500 5502 5504 5506 5508 5510 5511 5513 5513 5515 5516 5518 5520 5521 5522 5523 5527 5531 5533 5535 5537 5539 5541 5543 5546 5548 5551 5552 5553 5554 5557 5560 5561 5560 5560 5563 5565 5565 5566 5566 5567 5568 5569 5570 5571 5572 5573 5573 5574 5575 5575 5577 5578 5578 5579 5580 5581 5581 5582 5583 5583 5584 5584 5585 5586 5587 5588 5588 5589 5590 5591 5592 5593 5594 5595 5596 5597 5598 5598 5599 5599 5599
5485 5487 5489 5492 5493 5495 5497 5499 5501 5503 5505 5506 5508 5509 5511 5512 5514 5515 5515 5517 5520 5523 5526 5528 5530 5532 5534 5537 5540 5543 5544 5545 5546 5548 5552 5554 5554 5553 5554 5557 5558 5559 5560 5561 5562 5563 5564 5564 5565 5567 5568 5569 5569 5570 5571 5572 5573 5574 5575 5575 5576 5577 5578 5578 5579 5579 5580 5581 5582 5582 5583 5584 5585 5586 5587 5588 5589 5590 5591 5592 5593 5593 5594 5595 5595 5595
5477 5480 5482 5484 5486 5488 5490 5493 5495 5497 5498 5500 5502 5504 5505 5507 5508 5509 5510 5511 5513 5515 5518 5520 5522 5525 5527 5530 5533 5536 5537 5538 5540 5543 5545 5548 5548 5547 5548 5551 5553 5553 5554 5556 5558 5559 5559 5559 5560 5562 5564 5565 5565 5565 5566 5568 5569 5570 5570 5571 5572 5573 5573 5574 5574 5575 5576 5577 5578 5578 5579 5580 5581 5582 5583 5584 5585 5586 5587 5588 5588 5589 5590 5591 5591 5591
5469 5472 5475 5477 5479 5481 5483 5486 5488 5490 5492 5493 5495 5497 5499 5501 5502 5503 5504 5505 5506 5508 5510 5512 5514 5517 5519 5523 5526 5528 5530 5532 5533 5536 5538 5541 5542 5542 5543 5545 5547 5548 5549 5551 5553 5554 5554 5555 5555 5557 5559 5560 5561 5561 5562 5563 5564 5565 5566 5567 5568 5568 5568 5569 5570 5571 5572 5572 5573 5574 5575 5576 5577 5578 5578 5580 5581 5582 5583 5583 5584 5585 5585 5586 5586 5586
5461 5464 5467 5469 5472 5474 5476 5478 5481 5483 5485 5487 5488 5490 5492 5494 5496 5497 5498 5499 5500 5501 5503 5504 5506 5509 5511 5514 5518 5520 5523 5525 5527 5528 5531 5534 5535 5536 5537 5539 5541 5543 5544 5545 5547 5548 5550 5550 5551 5552 5553 5555 5556 5557 5558 5559 5560 5561 5562 5563 5563 5564 5564 5564 5565 5566 5567 5568 5568 5569 5570 5571 5572 5573 5574 5575 5576 5577 5578 5578 5579 5580 5581 5581 5582 5582
5453 5456 5459 5462 5465 5467 5469 5472 5474 5476 5478 5480 5482 5483 5485 5487 5489 5490 5492 5493 5494 5495 5497 5498 5500 5502 5504 5507 5509 5512 5515 5517 5519 5521 5524 5527 5528 5530 5531 5533 5535 5537 5539 5540 5542 5543 5545 5546 5546 5547 5548 5550 5552 5553 5554 5555 5556 5557 5558 5558 5559 5559 5560 5560 5561 5562 5562 5563 5563 5564 5565 5566 5568 5569 5570 5571 5572 5572 5573 5573 5574 5575 5576 5576 5577 5577
5445 5448 5451 5454 5457 5459 5462 5464 5466 5468 5471 5473 5474 5476 5477 5479 5481 5483 5485 5486 5488 5489 5491 5492 5494 5495 5498 5500 5503 5505 5507 5508 5511 5514 5517 5519 5521 5523 5525 5527 5528 5531 5533 5535 5536 5537 5539 5540 5541 5543 5544 5545 5547 5548 5548 5550 5552 5553 5553 5554 5554 5555 5555 5556 5557 5558 5558 5558 5559 5560 5561 5562 5563 5564 5565 5566 5567 5567 5568 5568 5569 5570 5570 5571 5572 5572
5437 5440 5443 5446 5449 5452 5454 5457 5459 5461 5463 5465 5467 5468 5469 5471 5473 5475 5477 5479 5481 5483 5484 5486 5488 5489 5492 5494 5496 5498 5500 5502 5504 5508 5511 5513 5515 5517 5519 5521 5522 5524 5528 5529 5530 5531 5533 5534 5536 5537 5539 5540 5541 5542 5543 5545 5547 5549 5549 5549 5550 5551 5551 5552 5553 5553 5554 5554 5555 5556 5556 5557 5558 5559 5560 5561 5561 5562 5563 5563 5563 5564 5565 5566 5566 5567
5429 5432 5435 5438 5441 5444 5447 5449 5451 5453 5455 5457 5458 5459 5461 5463 5464 5467 5469 5472 5474 5476 5478 5480 5482 5483 5485 5487 5489 5492 5493 5496 5498 5502 5504 5506 5508 5511 5513 5515 5516 5518 5521 5522 5523 5525 5527 5528 5530 5532 5533 5534 5536 5537 5538 5539 5542 5543 5544 5545 5545 5546 5547 5548 5548 5549 5550 5550 5551 5551 5552 5553 5553 5554 5555 5555 5556 5557 5557 5558 5558 5559 5560 5561 5561 5561
5420 5423 5427 5430 5433 5436 5439 5441 5443 5445 5446 5448 5449 5451 5452 5454 5456 5459 5462 5464 5467 5469 5471 5473 5475 5477 5479 5481 5483 5485 5488 5490 5493 5496 5498 5500 5503 5505 5507 5509 5510 5512 5513 5515 5517 5519 5521 5522 5524 5525 5527 5528 5530 5531 5533 5534 5535 5537 5538 5539 5541 5542 5543 5543 5543 5544 5545 5546 5546 5546 5547 5547 5548 5549 5550 5550 5550 5551 5552 5552 5553 5553 5554 5555 5556 5556
5411 5415 5418 5422 5425 5428 5431 5433 5434 5436 5437 5439 5440 5442 5444 5446 5449 5452 5454 5457 5459 5462 5464 5466 5468 5470 5472 5474 5477 5479 5482 5484 5487 5489 5492 5494 5497 5499 5501 5503 5504 5505 5506 5508 5510 5513 5514 5516 5518 5519 5520 5522 5523 5525 5526 5528 5529 5531 5532 5534 5536 5537 5537 5538 5539 5540 5541 5541 5541 5541 5542 5542 5543 5544 5544 5544 5545 5546 5546 5547 5548 5548 5549 5550 5551 5551
5402 5407 5411 5414 5417 5420 5422 5424 5425 5427 5428 5430 5432 5434 5436 5439 5442 5444 5447 5449 5452 5455 5457 5459 5461 5463 5465 5468 5470 5473 5476 5478 5481 5483 5486 5488 5490 5492 5494 5496 5498 5499 5501 5502 5504 5506 5508 5510 5511 5513 5514 5515 5517 5518 5520 5521 5523 5524 5526 5528 5530 5530 5531 5532 5534 5535 5536 5536 5536 5536 5537 5537 5538 5538 5538 5539 5540 5540 5541 5542 5543 5543 5543 5544 5545 5546
5394 5398 5402 5405 5408 5411 5413 5415 5416 5418 5420 5422 5424 5427 5429 5431 5434 5437 5439 5442 5445 5447 5449 5451 5454 5456 5458 5461 5463 5466 5469 5472 5474 5476 5479 5481 5483 5485 5488 5489 5491 5493 5494 5497 5498 5500 5503 5504 5506 5507 5508 5509 5511 5512 5514 5515 5516 5518 5520 5522 5523 5524 5525 5527 5528 5529 5530 5530 5530 5531 5531 5532 5532 5533 5533 5534 5534 5535 5536 5537 5538 5538 5538 5539 5539 5540
5385 5389 5393 5396 5399 5401 5403 5405 5407 5409 5412 5414 5417 5419 5421 5423 5426 5429 5432 5435 5437 5439 5441 5444 5446 5449 5451 5454 5457 5459 5462 5465 5467 5469 5472 5474 5477 5478 5481 5483 5484 5486 5488 5491 5493 5494 5496 5498 5500 5501 5502 5503 5505 5507 5508 5509 5510 5512 5514 5516 5517 5518 5520 5521 5521 5523 5524 5525 5525 5525 5525 5526 5527 5527 5528 5528 5529 5530 5531 5532 5533 5533 5533 5534 5534 5534
5377 5380 5383 5386 5390 5393 5395 5397 5399 5402 5404 5406 5409 5412 5414 5416 5419 5422 5425 5427 5429 5432 5434 5437 5439 5442 5444 5447 5449 5452 5455 5457 5460 5463 5465 5468 5469 5472 5474 5476 5478 5480 5482 5485 5487 5488 5490 5492 5494 5495 5496 5498 5499 5501 5503 5503 5505 5506 5508 5509 5511 5513 5514 5514 5515 5516 5518 5519 5519 5519 5519 5520 5521 5522 5523 5523 5524 5525 5526 5527 5528 5528 5528 5528 5528 5529
5368 5371 5374 5378 5381 5384 5387 5389 5391 5393 5395 5398 5402 5404 5406 5408 5411 5414 5417 5419 5422 5424 5427 5429 5432 5435 5437 5439 5442 5444 5448 5450 5453 5456 5458 5460 5463 5465 5467 5469 5471 5473 5475 5478 5480 5482 5484 5486 5488 5489 5490 5492 5494 5496 5497 5498 5499 5501 5502 5503 5505 5507 5508 5508 5509 5510 5512 5513 5513 5513 5514 5515 5516 5517 5518 5518 5519 5520 5521 5522 5522 5522 5522 5523 5523 5523
5359 5363 5366 5369 5372 5375 5378 5380 5382 5385 5388 5391 5394 5397 5398 5401 5403 5406 5409 5412 5414 5417 5419 5422 5425 5428 5430 5432 5435 5438 5441 5443 5446 5448 5451 5453 5455 5458 5460 5462 5464 5466 5468 5471 5473 5475 5478 5480 5481 5483 5484 5487 5489 5490 5491 5493 5494 5495 5497 5498 5499 5501 5502 5503 5503 5504 5506 5507 5508 5508 5509 5510 5511 5512 5513 5514 5515 5516 5516 5517 5517 5517 5517 5517 5518 5518
5351 5353 5357 5360 5363 5366 5369 5372 5374 5377 5380 5383 5386 5388 5390 5393 5395 5398 5401 5404 5406 5409 5412 5415 5418 5422 5424 5426 5428 5431 5434 5436 5438 5441 5443 5446 5448 5451 5453 5455 5457 5459 5462 5464 5466 5468 5471 5473 5475 5477 5479 5481 5483 5484 5486 5487 5489 5490 5491 5492 5494 5496 5497 5497 5498 5499 5500 5502 5503 5503 5504 5505 5507 5508 5508 5509 5510 5510 5510 5511 5511 5511 5512 5512 5512 5513
5342 5345 5348 5351 5354 5358 5361 5363 5366 5369 5372 5375 5377 5380 5382 5385 5388 5391 5393 5396 5398 5401 5405 5408 5412 5415 5417 5419 5422 5425 5428 5430 5432 5434 5436 5439 5441 5444 5446 5448 5450 5453 5455 5457 5459 5462 5464 5466 5468 5471 5473 5475 5477 5478 5480 5482 5483 5485 5485 5486 5488 5490 5491 5492 5493 5493 5495 5497 5498 5498 5499 5500 5502 5503 5503 5504 5504 5505 5505 5505 5505 5506 5506 5506 5507 5507
5334 5337 5340 5343 5346 5349 5352 5355 5358 5361 5364 5367 5369 5372 5375 5377 5380 5383 5385 5387 5390 5394 5398 5401 5404 5407 5410 5413 5415 5418 5422 5424 5426 5428 5430 5432 5434 5437 5439 5441 5444 5446 5448 5451 5453 5455 5458 5460 5462 5464 5467 5469 5471 5473 5474 5476 5477 5479 5480 5481 5483 5484 5486 5487 5488 5488 5490 5492 5493 5493 5494 5495 5496 5497 5498 5498 5498 5498 5499 5499 5500 5500 5501 5501 5502 5502
5326 5329 5332 5335 5338 5340 5343 5346 5350 5353 5357 5360 5362 5364 5367 5369 5372 5374 5377 5379 5383 5387 5391 5394 5397 5400 5403 5406 5409 5412 5415 5418 5420 5422 5424 5427 5428 5431 5433 5434 5437 5439 5442 5444 5447 5449 5452 5454 5456 5458 5460 5463 5465 5467 5468 5470 5471 5473 5475 5476 5478 5479 5481 5482 5483 5483 5485 5486 5487 5488 5489 5489 5490 5491 5492 5493 5493 5493 5493 5494 5495 5495 5495 5496 5496 5497
5318 5321 5324 5327 5329 5332 5335 5338 5342 5346 5349 5352 5355 5357 5359 5362 5364 5367 5369 5372 5375 5379 5383 5386 5390 5393 5397 5399 5402 5405 5408 5411 5413 5416 5418 5421 5423 5425 5427 5428 5431 5433 5436 5438 5440 5443 5445 5448 5450 5452 5454 5457 5459 5462 5463 5464 5466 5468 5470 5471 5472 5474 5476 5477 5477 5478 5479 5481 5482 5482 5483 5484 5484 5485 5486 5487 5487 5487 5488 5488 5489 5490 5490 5490 5491 5491